| time (UTC) | temp C | wind direction | speed KPH | gust KPH | rain 1hr cm | rain 24hr cm | rain mn cm | humidity % | barometer mb |
| 20260509212429 | 18 | 228 | 8.0 | 24.1 | 0.00 | 0.00 | 0.81 | 59 | 1008.0 |
| 20260509211929 | 18 | 229 | 9.7 | 12.9 | 0.00 | 0.00 | 0.81 | 62 | 1008.0 |
| 20260509211428 | 18 | 228 | 4.8 | 9.7 | 0.00 | 0.00 | 0.81 | 64 | 1008.0 |
| 20260509210928 | 18 | 229 | 4.8 | 6.4 | 0.00 | 0.00 | 0.81 | 61 | 1008.0 |
| 20260509210428 | 18 | 228 | 6.4 | 9.7 | 0.00 | 0.00 | 0.81 | 64 | 1008.0 |
| 20260509205930 | 18 | 227 | 4.8 | 6.4 | 0.00 | 0.00 | 0.81 | 65 | 1008.0 |
| 20260509205428 | 18 | 230 | 6.4 | 9.7 | 0.00 | 0.00 | 0.81 | 63 | 1008.0 |
| 20260509204930 | 18 | 229 | 3.2 | 4.8 | 0.00 | 0.00 | 0.81 | 65 | 1008.0 |
| 20260509204430 | 17 | 228 | 6.4 | 11.3 | 0.00 | 0.00 | 0.81 | 65 | 1008.0 |
| 20260509203930 | 17 | 231 | 3.2 | 6.4 | 0.00 | 0.00 | 0.81 | 66 | 1008.0 |
| 20260509203428 | 18 | 229 | 8.0 | 14.5 | 0.00 | 0.00 | 0.81 | 65 | 1008.0 |
| 20260509202929 | 18 | 228 | 1.6 | 3.2 | 0.00 | 0.00 | 0.81 | 68 | 1008.0 |
| 20260509202428 | 18 | 228 | 6.4 | 17.7 | 0.00 | 0.00 | 0.81 | 66 | 1008.0 |
| 20260509201928 | 18 | 227 | 3.2 | 6.4 | 0.00 | 0.00 | 0.81 | 67 | 1008.0 |
| 20260509201428 | 18 | 228 | 3.2 | 6.4 | 0.00 | 0.00 | 0.81 | 67 | 1008.0 |
| 20260509200929 | 17 | 227 | 3.2 | 4.8 | 0.00 | 0.00 | 0.81 | 68 | 1008.0 |
| 20260509200428 | 17 | 228 | 3.2 | 6.4 | 0.00 | 0.00 | 0.81 | 68 | 1009.0 |
| 20260509195928 | 17 | 228 | 3.2 | 6.4 | 0.00 | 0.00 | 0.81 | 69 | 1008.0 |
| 20260509195429 | 17 | 228 | 4.8 | 8.0 | 0.00 | 0.00 | 0.81 | 71 | 1008.0 |
| 20260509194928 | 17 | 228 | 3.2 | 4.8 | 0.00 | 0.00 | 0.81 | 72 | 1008.0 |
| 20260509194428 | 17 | 228 | 3.2 | 6.4 | 0.00 | 0.00 | 0.81 | 71 | 1009.0 |
| 20260509193928 | 17 | 229 | 3.2 | 4.8 | 0.00 | 0.00 | 0.81 | 73 | 1008.0 |
| 20260509193429 | 17 | 227 | 3.2 | 6.4 | 0.00 | 0.00 | 0.81 | 76 | 1009.0 |
| 20260509192930 | 17 | 227 | 4.8 | 8.0 | 0.00 | 0.00 | 0.81 | 76 | 1009.0 |
| 20260509192428 | 17 | 231 | 4.8 | 6.4 | 0.00 | 0.00 | 0.81 | 75 | 1009.0 |
| 20260509191928 | 17 | 228 | 3.2 | 6.4 | 0.00 | 0.00 | 0.81 | 75 | 1009.0 |
| 20260509191428 | 16 | 229 | 6.4 | 6.4 | 0.00 | 0.00 | 0.81 | 78 | 1009.0 |
| 20260509190928 | 16 | 228 | 4.8 | 4.8 | 0.00 | 0.00 | 0.81 | 76 | 1009.0 |
| 20260509190428 | 16 | 228 | 3.2 | 6.4 | 0.00 | 0.00 | 0.81 | 77 | 1009.0 |
| 20260509185428 | 15 | 229 | 17.7 | 54.7 | 0.00 | 0.00 | 0.81 | 81 | 1009.0 |
| 20260509184929 | 15 | 229 | 45.1 | 64.4 | 0.00 | 0.00 | 0.81 | 81 | 1010.0 |
| 20260509184428 | 15 | 227 | 22.5 | 61.2 | 0.00 | 0.00 | 0.81 | 82 | 1010.0 |
| 20260509183928 | 15 | 226 | 32.2 | 59.5 | 0.00 | 0.00 | 0.81 | 84 | 1010.0 |
| 20260509183429 | 15 | 226 | 33.8 | 48.3 | 0.00 | 0.00 | 0.81 | 83 | 1010.0 |
| 20260509182928 | 15 | 227 | 12.9 | 29.0 | 0.00 | 0.00 | 0.81 | 84 | 1010.0 |
| 20260509182428 | 14 | 226 | 19.3 | 38.6 | 0.00 | 0.00 | 0.81 | 85 | 1010.0 |
| 20260509181930 | 15 | 231 | 56.3 | 70.8 | 0.00 | 0.00 | 0.81 | 85 | 1010.0 |
| 20260509181428 | 14 | 225 | 64.4 | 86.9 | 0.00 | 0.00 | 0.81 | 86 | 1010.0 |
| 20260509180930 | 14 | 227 | 25.7 | 41.8 | 0.00 | 0.00 | 0.81 | 84 | 1010.0 |
| 20260509180428 | 14 | 226 | 57.9 | 66.0 | 0.00 | 0.00 | 0.81 | 87 | 1010.0 |
| 20260509175928 | 14 | 237 | 57.9 | 72.4 | 0.00 | 0.00 | 0.81 | 86 | 1010.0 |
| 20260509173928 | 13 | 227 | 11.3 | 22.5 | 0.00 | 0.00 | 0.81 | 89 | 1010.0 |
| 20260509173429 | 13 | 233 | 19.3 | 33.8 | 0.00 | 0.00 | 0.81 | 88 | 1010.0 |
| 20260509172929 | 13 | 213 | 12.9 | 25.7 | 0.00 | 0.00 | 0.81 | 90 | 1010.0 |
| 20260509172430 | 13 | 44 | 14.5 | 30.6 | 0.00 | 0.00 | 0.81 | 90 | 1010.0 |
| 20260509171930 | 13 | 43 | 16.1 | 32.2 | 0.00 | 0.00 | 0.81 | 90 | 1010.0 |
| 20260509171430 | 13 | 46 | 29.0 | 46.7 | 0.00 | 0.00 | 0.81 | 91 | 1009.0 |
| 20260509170929 | 13 | 45 | 41.8 | 69.2 | 0.00 | 0.00 | 0.81 | 90 | 1010.0 |
| 20260509165929 | 13 | 45 | 17.7 | 35.4 | 0.00 | 0.00 | 0.81 | 93 | 1009.0 |
| 20260509165428 | 12 | 45 | 33.8 | 51.5 | 0.00 | 0.00 | 0.81 | 94 | 1009.0 |
| 20260509164930 | 12 | 43 | 8.0 | 19.3 | 0.00 | 0.00 | 0.81 | 94 | 1009.0 |
| 20260509164430 | 12 | 44 | 27.4 | 56.3 | 0.00 | 0.00 | 0.81 | 95 | 1009.0 |
| 20260509163928 | 12 | 43 | 17.7 | 37.0 | 0.00 | 0.00 | 0.81 | 95 | 1009.0 |
| 20260509161929 | 12 | 229 | 11.3 | 14.5 | 0.00 | 0.00 | 0.81 | 95 | 1009.0 |
| 20260509161429 | 12 | 234 | 8.0 | 17.7 | 0.00 | 0.00 | 0.81 | 95 | 1009.0 |
| 20260509160928 | 12 | 234 | 12.9 | 20.9 | 0.13 | 0.00 | 0.81 | 96 | 1009.0 |
| 20260509160429 | 12 | 239 | 14.5 | 24.1 | 0.05 | 0.00 | 0.81 | 96 | 1009.0 |
| 20260509155930 | 12 | 16 | 12.9 | 20.9 | 0.03 | 0.00 | 0.81 | 96 | 1009.0 |
| 20260509155430 | 11 | 229 | 9.7 | 16.1 | 0.03 | 0.00 | 0.81 | 96 | 1009.0 |
| 20260509154930 | 11 | 138 | 9.7 | 24.1 | 0.00 | 0.00 | 0.81 | 96 | 1009.0 |
| 20260509154428 | 11 | 228 | 8.0 | 17.7 | 0.00 | 0.00 | 0.81 | 96 | 1009.0 |
| 20260509153428 | 11 | 226 | 6.4 | 9.7 | 0.00 | 0.00 | 0.81 | 97 | 1009.0 |
| 20260509152430 | 11 | 225 | 9.7 | 32.2 | 0.03 | 0.00 | 0.81 | 97 | 1009.0 |
| 20260509151932 | 11 | 233 | 8.0 | 17.7 | 0.00 | 0.00 | 0.81 | 97 | 1009.0 |
| 20260509151429 | 11 | 254 | 8.0 | 19.3 | 0.03 | 0.00 | 0.81 | 97 | 1009.0 |
| 20260509150928 | 11 | 227 | 8.0 | 22.5 | 0.05 | 0.00 | 0.79 | 97 | 1009.0 |
| 20260509150429 | 11 | 40 | 6.4 | 14.5 | 0.08 | 0.00 | 0.79 | 97 | 1009.0 |
| 20260509145929 | 11 | 40 | 4.8 | 9.7 | 0.05 | 0.00 | 0.79 | 97 | 1009.0 |
| 20260509145428 | 11 | 330 | 6.4 | 17.7 | 0.05 | 0.00 | 0.79 | 97 | 1009.0 |
| 20260509144929 | 11 | 239 | 4.8 | 9.7 | 0.03 | 0.00 | 0.76 | 97 | 1009.0 |
| 20260509144428 | 11 | 266 | 9.7 | 16.1 | 0.08 | 0.00 | 0.76 | 97 | 1009.0 |
| 20260509143930 | 11 | 17 | 11.3 | 20.9 | 0.13 | 0.00 | 0.74 | 97 | 1009.0 |
| 20260509143428 | 11 | 35 | 8.0 | 14.5 | 0.08 | 0.00 | 0.74 | 97 | 1009.0 |
| 20260509142930 | 11 | 219 | 9.7 | 20.9 | 0.25 | 0.00 | 0.71 | 97 | 1009.0 |
| 20260509142429 | 11 | 34 | 11.3 | 17.7 | 0.13 | 0.00 | 0.71 | 97 | 1009.0 |
| 20260509140429 | 11 | 39 | 6.4 | 14.5 | 0.13 | 0.00 | 0.66 | 97 | 1010.0 |
| 20260509135428 | 11 | 33 | 8.0 | 12.9 | 0.10 | 0.00 | 0.61 | 96 | 1010.0 |
| 20260509134928 | 11 | 251 | 9.7 | 25.7 | 0.38 | 0.00 | 0.61 | 96 | 1010.0 |
| 20260509134428 | 11 | 201 | 8.0 | 19.3 | 0.36 | 0.00 | 0.58 | 96 | 1010.0 |
| 20260509133928 | 11 | 46 | 8.0 | 14.5 | 0.25 | 0.00 | 0.56 | 96 | 1010.0 |
| 20260509133428 | 11 | 250 | 4.8 | 8.0 | 0.46 | 0.00 | 0.53 | 96 | 1010.0 |
| 20260509132930 | 11 | 35 | 3.2 | 6.4 | 0.23 | 0.00 | 0.51 | 96 | 1010.0 |
| 20260509132429 | 11 | 233 | 3.2 | 9.7 | 0.18 | 0.00 | 0.48 | 96 | 1010.0 |
| 20260509131929 | 11 | 43 | 3.2 | 4.8 | 0.33 | 0.00 | 0.48 | 96 | 1010.0 |
| 20260509131428 | 11 | 44 | 4.8 | 6.4 | 0.08 | 0.00 | 0.48 | 96 | 1010.0 |
| 20260509130928 | 11 | 40 | 4.8 | 9.7 | 0.25 | 0.00 | 0.46 | 96 | 1010.0 |
| 20260509130431 | 11 | 31 | 3.2 | 4.8 | 0.20 | 0.00 | 0.46 | 96 | 1010.0 |
| 20260509125928 | 11 | 28 | 3.2 | 4.8 | 0.28 | 0.00 | 0.43 | 96 | 1010.0 |
| 20260509125429 | 11 | 29 | 3.2 | 6.4 | 0.28 | 0.00 | 0.41 | 96 | 1010.0 |
| 20260509124929 | 11 | 2 | 3.2 | 9.7 | 0.28 | 0.00 | 0.38 | 96 | 1010.0 |
| 20260509124429 | 11 | 283 | 1.6 | 3.2 | 0.33 | 0.00 | 0.36 | 96 | 1010.0 |
| 20260509123928 | 11 | 312 | 3.2 | 3.2 | 0.20 | 0.00 | 0.36 | 95 | 1010.0 |
| 20260509123431 | 11 | 209 | 3.2 | 3.2 | 0.28 | 0.00 | 0.33 | 95 | 1010.0 |
| 20260509122928 | 11 | 215 | 3.2 | 6.4 | 0.10 | 0.00 | 0.30 | 96 | 1010.0 |
| 20260509122429 | 10 | 236 | 3.2 | 6.4 | 0.10 | 0.00 | 0.30 | 96 | 1010.0 |
| 20260509121936 | 10 | 223 | 3.2 | 4.8 | 0.15 | 0.00 | 0.28 | 95 | 1010.0 |
| 20260509121429 | 10 | 218 | 6.4 | 9.7 | 0.08 | 0.00 | 0.28 | 95 | 1010.0 |
| 20260509120929 | 10 | 244 | 1.6 | 1.6 | 0.00 | 0.00 | 0.28 | 95 | 1010.0 |
| 20260509120429 | 10 | 158 | 1.6 | 3.2 | 0.03 | 0.00 | 0.25 | 96 | 1010.0 |
| 20260509115929 | 10 | 218 | 1.6 | 3.2 | 0.03 | 0.00 | 0.25 | 95 | 1010.0 |
| 20260509115428 | 10 | 244 | 3.2 | 4.8 | 0.00 | 0.00 | 0.25 | 95 | 1010.0 |
| 20260509114929 | 10 | 227 | 3.2 | 3.2 | 0.00 | 0.00 | 0.25 | 95 | 1010.0 |
| 20260509114428 | 10 | 221 | 3.2 | 3.2 | 0.03 | 0.00 | 0.25 | 95 | 1010.0 |
| 20260509113928 | 10 | 211 | 3.2 | 4.8 | 0.00 | 0.00 | 0.25 | 95 | 1010.0 |
| 20260509113428 | 10 | 229 | 1.6 | 1.6 | 0.00 | 0.00 | 0.25 | 95 | 1010.0 |
| 20260509112928 | 10 | 235 | 3.2 | 4.8 | 0.03 | 0.00 | 0.25 | 95 | 1010.0 |
| 20260509112428 | 10 | 233 | 1.6 | 3.2 | 0.00 | 0.00 | 0.25 | 95 | 1010.0 |
| 20260509111929 | 10 | 205 | 3.2 | 4.8 | 0.00 | 0.00 | 0.25 | 95 | 1010.0 |
| 20260509111430 | 10 | 227 | 4.8 | 6.4 | 0.00 | 0.00 | 0.25 | 95 | 1010.0 |
| 20260509110930 | 10 | 223 | 3.2 | 4.8 | 0.00 | 0.00 | 0.25 | 95 | 1010.0 |
| 20260509110428 | 10 | 227 | 3.2 | 3.2 | 0.00 | 0.00 | 0.23 | 94 | 1010.0 |
| 20260509105929 | 10 | 259 | 3.2 | 6.4 | 0.00 | 0.00 | 0.23 | 94 | 1010.0 |
| 20260509104941 | 10 | 226 | 4.8 | 6.4 | 0.03 | 0.00 | 0.23 | 94 | 1010.0 |
| 20260509104429 | 10 | 230 | 3.2 | 4.8 | 0.05 | 0.00 | 0.23 | 94 | 1010.0 |
| 20260509103928 | 10 | 219 | 6.4 | 11.3 | 0.08 | 0.00 | 0.20 | 94 | 1010.0 |
| 20260509103428 | 10 | 236 | 1.6 | 3.2 | 0.10 | 0.00 | 0.20 | 94 | 1010.0 |
| 20260509102928 | 10 | 225 | 6.4 | 12.9 | 0.05 | 0.00 | 0.20 | 93 | 1010.0 |
| 20260509102428 | 10 | 226 | 4.8 | 9.7 | 0.08 | 0.00 | 0.18 | 93 | 1010.0 |
| 20260509101928 | 10 | 209 | 3.2 | 4.8 | 0.08 | 0.00 | 0.20 | 94 | 1010.0 |
| 20260509101428 | 10 | 230 | 3.2 | 6.4 | 0.15 | 0.00 | 0.18 | 93 | 1010.0 |
| 20260509100928 | 10 | 316 | 3.2 | 3.2 | 0.20 | 0.00 | 0.18 | 93 | 1010.0 |
| 20260509100429 | 10 | 356 | 1.6 | 4.8 | 0.08 | 0.00 | 0.15 | 93 | 1010.0 |
| 20260509095930 | 10 | 257 | 3.2 | 3.2 | 0.15 | 0.00 | 0.10 | 93 | 1010.0 |
| 20260509095429 | 10 | 224 | 3.2 | 6.4 | 0.08 | 0.00 | 0.10 | 93 | 1010.0 |
| 20260509094930 | 10 | 233 | 3.2 | 6.4 | 0.00 | 0.00 | 0.10 | 92 | 1010.0 |
| 20260509094429 | 10 | 227 | 6.4 | 9.7 | 0.03 | 0.00 | 0.10 | 92 | 1010.0 |
| 20260509093928 | 10 | 217 | 3.2 | 4.8 | 0.10 | 0.00 | 0.08 | 92 | 1010.0 |
| 20260509093429 | 10 | 232 | 3.2 | 4.8 | 0.03 | 0.00 | 0.08 | 92 | 1010.0 |
| 20260509092930 | 10 | 216 | 4.8 | 6.4 | 0.00 | 0.00 | 0.08 | 93 | 1010.0 |
| 20260509092428 | 10 | 308 | 3.2 | 3.2 | 0.00 | 0.00 | 0.08 | 92 | 1011.0 |
| 20260509091929 | 10 | 225 | 4.8 | 4.8 | 0.05 | 0.00 | 0.08 | 92 | 1011.0 |
| 20260509091431 | 10 | 226 | 3.2 | 3.2 | 0.10 | 0.00 | 0.05 | 92 | 1011.0 |
| 20260509090929 | 10 | 210 | 1.6 | 3.2 | 0.03 | 0.00 | 0.05 | 93 | 1011.0 |
| 20260509090428 | 10 | 218 | 3.2 | 3.2 | 0.05 | 0.00 | 0.05 | 93 | 1011.0 |
| 20260509085929 | 10 | 210 | 3.2 | 3.2 | 0.00 | 0.00 | 0.05 | 94 | 1011.0 |
| 20260509085428 | 10 | 245 | 3.2 | 3.2 | 0.03 | 0.00 | 0.05 | 94 | 1011.0 |
| 20260509084929 | 10 | 219 | 3.2 | 6.4 | 0.03 | 0.00 | 0.03 | 96 | 1010.0 |
| 20260509084429 | 10 | 230 | 3.2 | 6.4 | 0.08 | 0.00 | 0.03 | 97 | 1010.0 |
| 20260509083929 | 10 | 229 | 6.4 | 8.0 | 0.05 | 0.00 | 0.03 | 98 | 1010.0 |
| 20260509083430 | 9 | 180 | 3.2 | 4.8 | 0.05 | 0.00 | 0.00 | 99 | 1010.0 |
| 20260509082930 | 9 | 206 | 1.6 | 3.2 | 0.00 | 0.00 | 0.00 | 99 | 1010.0 |
| 20260509082429 | 9 | 199 | 1.6 | 3.2 | 0.00 | 0.00 | 0.00 | 99 | 1010.0 |
| 20260509081928 | 9 | 232 | 1.6 | 1.6 | 0.00 | 0.00 | 0.00 | 99 | 1010.0 |
| 20260509081428 | 9 | 225 | 1.6 | 3.2 | 0.00 | 0.00 | 0.00 | 98 | 1010.0 |
| 20260509080930 | 9 | 245 | 0.0 | 1.6 | 0.00 | 0.00 | 0.00 | 98 | 1010.0 |
| 20260509080428 | 9 | 204 | 1.6 | 1.6 | 0.00 | 0.00 | 0.00 | 99 | 1010.0 |
| 20260509075928 | 9 | 280 | 1.6 | 3.2 | 0.00 | 0.00 | 0.00 | 99 | 1009.0 |
| 20260509075428 | 9 | 177 | 3.2 | 3.2 | 0.00 | 0.00 | 0.00 | 98 | 1009.0 |
| 20260509074929 | 9 | 206 | 0.0 | 1.6 | 0.00 | 0.00 | 0.00 | 98 | 1009.0 |
| 20260509073949 | 9 | 140 | 1.6 | 1.6 | 0.00 | 0.00 | 0.00 | 98 | 1009.0 |
| 20260509073429 | 9 | 173 | 1.6 | 3.2 | 0.00 | 0.00 | 0.00 | 98 | 1009.0 |
| 20260509072928 | 9 | 282 | 1.6 | 1.6 | 0.00 | 0.00 | 0.00 | 98 | 1009.0 |
| 20260509072428 | 9 | 280 | 0.0 | 1.6 | 0.00 | 0.00 | 0.00 | 98 | 1009.0 |
| 20260509071928 | 9 | 200 | 1.6 | 3.2 | 0.00 | 0.00 | 0.00 | 98 | 1009.0 |
| 20260509071428 | 9 | 238 | 1.6 | 1.6 | 0.00 | 0.00 | 0.00 | 98 | 1009.0 |
| 20260509070930 | 9 | 201 | 1.6 | 1.6 | 0.00 | 0.00 | 0.00 | 98 | 1009.0 |
| 20260509070429 | 9 | 211 | 1.6 | 1.6 | 0.00 | 0.00 | 0.00 | 98 | 1009.0 |
| 20260509065928 | 9 | 225 | 1.6 | 1.6 | 0.00 | 0.00 | 0.00 | 98 | 1009.0 |
| 20260509065429 | 9 | 229 | 1.6 | 1.6 | 0.00 | 0.00 | 0.00 | 98 | 1009.0 |
| 20260509064929 | 9 | 197 | 1.6 | 1.6 | 0.00 | 0.00 | 0.00 | 98 | 1009.0 |
| 20260509064429 | 9 | 217 | 0.0 | 1.6 | 0.00 | 0.00 | 0.00 | 98 | 1009.0 |
| 20260509063928 | 9 | 164 | 1.6 | 1.6 | 0.00 | 0.00 | 0.00 | 98 | 1009.0 |
| 20260509063428 | 9 | 208 | 1.6 | 1.6 | 0.00 | 0.00 | 0.00 | 98 | 1009.0 |
| 20260509062928 | 9 | 211 | 1.6 | 1.6 | 0.00 | 0.00 | 0.00 | 98 | 1009.0 |
| 20260509062429 | 9 | 254 | 1.6 | 1.6 | 0.00 | 0.00 | 0.00 | 98 | 1009.0 |
| 20260509061930 | 9 | 183 | 1.6 | 1.6 | 0.00 | 0.00 | 0.00 | 98 | 1010.0 |
| 20260509061428 | 9 | 111 | 1.6 | 1.6 | 0.00 | 0.00 | 0.00 | 97 | 1010.0 |
| 20260509060929 | 9 | 200 | 1.6 | 3.2 | 0.00 | 0.00 | 0.00 | 97 | 1010.0 |
| 20260509060428 | 9 | 268 | 1.6 | 4.8 | 0.00 | 0.00 | 0.00 | 97 | 1010.0 |
| 20260509055929 | 9 | 205 | 1.6 | 1.6 | 0.00 | 0.00 | 0.00 | 97 | 1010.0 |
| 20260509055428 | 9 | 217 | 1.6 | 1.6 | 0.00 | 0.00 | 0.00 | 97 | 1010.0 |
| 20260509054928 | 9 | 190 | 1.6 | 1.6 | 0.00 | 0.00 | 0.00 | 97 | 1010.0 |
| 20260509054428 | 9 | 204 | 1.6 | 1.6 | 0.00 | 0.00 | 0.00 | 97 | 1010.0 |
| 20260509053930 | 9 | 206 | 1.6 | 3.2 | 0.00 | 0.00 | 0.00 | 97 | 1010.0 |
| 20260509053428 | 10 | 212 | 1.6 | 1.6 | 0.00 | 0.00 | 0.00 | 97 | 1010.0 |
| 20260509052928 | 10 | 221 | 1.6 | 1.6 | 0.00 | 0.00 | 0.00 | 97 | 1010.0 |
| 20260509052428 | 10 | 196 | 1.6 | 1.6 | 0.00 | 0.00 | 0.00 | 97 | 1010.0 |
| 20260509051928 | 10 | 223 | 1.6 | 1.6 | 0.00 | 0.00 | 0.00 | 97 | 1010.0 |
| 20260509051429 | 10 | 303 | 0.0 | 1.6 | 0.00 | 0.00 | 0.00 | 97 | 1010.0 |
| 20260509050932 | 10 | 215 | 1.6 | 3.2 | 0.00 | 0.00 | 0.00 | 97 | 1010.0 |
| 20260509050429 | 10 | 259 | 1.6 | 1.6 | 0.00 | 0.00 | 0.00 | 97 | 1010.0 |
| 20260509045929 | 10 | 213 | 1.6 | 1.6 | 0.00 | 0.00 | 0.00 | 97 | 1010.0 |
| 20260509045429 | 10 | 266 | 1.6 | 1.6 | 0.00 | 0.00 | 0.00 | 97 | 1010.0 |
| 20260509044928 | 10 | 210 | 3.2 | 4.8 | 0.00 | 0.00 | 0.00 | 97 | 1010.0 |
| 20260509044428 | 10 | 223 | 3.2 | 4.8 | 0.00 | 0.00 | 0.00 | 97 | 1010.0 |
| 20260509043928 | 10 | 182 | 1.6 | 1.6 | 0.00 | 0.00 | 0.00 | 97 | 1010.0 |
| 20260509043428 | 10 | 0 | 0.0 | 0.0 | 0.00 | 0.00 | 0.00 | 97 | 1010.0 |
| 20260509042930 | 10 | 81 | 1.6 | 3.2 | 0.00 | 0.00 | 0.00 | 97 | 1011.0 |
| 20260509042429 | 10 | 177 | 0.0 | 1.6 | 0.00 | 0.00 | 0.00 | 97 | 1011.0 |
| 20260509041930 | 10 | 222 | 1.6 | 1.6 | 0.00 | 0.00 | 0.00 | 97 | 1011.0 |
| 20260509041429 | 10 | 207 | 1.6 | 1.6 | 0.00 | 0.00 | 0.00 | 97 | 1011.0 |
| 20260509040929 | 10 | 210 | 1.6 | 1.6 | 0.00 | 0.00 | 0.00 | 97 | 1011.0 |
| 20260509040428 | 10 | 247 | 1.6 | 3.2 | 0.00 | 0.00 | 0.00 | 97 | 1011.0 |
| 20260509035928 | 10 | 200 | 0.0 | 1.6 | 0.00 | 0.00 | 0.05 | 96 | 1011.0 |
| 20260509035428 | 10 | 202 | 0.0 | 1.6 | 0.00 | 0.00 | 0.05 | 96 | 1011.0 |
| 20260509034928 | 10 | 254 | 1.6 | 3.2 | 0.00 | 0.00 | 0.05 | 96 | 1011.0 |
| 20260509034429 | 10 | 238 | 0.0 | 1.6 | 0.00 | 0.00 | 0.05 | 96 | 1011.0 |
| 20260509033929 | 10 | 198 | 0.0 | 1.6 | 0.00 | 0.00 | 0.05 | 96 | 1011.0 |
| 20260509033428 | 10 | 223 | 1.6 | 3.2 | 0.00 | 0.00 | 0.05 | 96 | 1011.0 |
| 20260509032929 | 10 | 219 | 3.2 | 4.8 | 0.00 | 0.00 | 0.05 | 96 | 1011.0 |
| 20260509032429 | 10 | 203 | 1.6 | 1.6 | 0.00 | 0.00 | 0.05 | 96 | 1011.0 |
| 20260509031929 | 10 | 221 | 3.2 | 4.8 | 0.00 | 0.00 | 0.05 | 96 | 1011.0 |
| 20260509031428 | 10 | 242 | 1.6 | 1.6 | 0.00 | 0.00 | 0.05 | 95 | 1011.0 |
| 20260509030928 | 10 | 228 | 1.6 | 1.6 | 0.00 | 0.00 | 0.05 | 95 | 1011.0 |
| 20260509030430 | 10 | 203 | 0.0 | 1.6 | 0.03 | 0.00 | 0.05 | 95 | 1011.0 |
| 20260509025928 | 10 | 236 | 1.6 | 3.2 | 0.08 | 0.00 | 0.05 | 95 | 1012.0 |
| 20260509025428 | 10 | 204 | 1.6 | 1.6 | 0.00 | 0.00 | 0.05 | 95 | 1012.0 |
| 20260509024929 | 10 | 278 | 3.2 | 3.2 | 0.00 | 0.00 | 0.05 | 95 | 1012.0 |
| 20260509024428 | 10 | 187 | 1.6 | 1.6 | 0.00 | 0.00 | 0.05 | 95 | 1012.0 |
| 20260509023929 | 10 | 220 | 1.6 | 3.2 | 0.00 | 0.00 | 0.05 | 95 | 1012.0 |
| 20260509023429 | 10 | 196 | 3.2 | 3.2 | 0.00 | 0.00 | 0.05 | 94 | 1012.0 |
| 20260509022929 | 10 | 228 | 1.6 | 1.6 | 0.00 | 0.00 | 0.05 | 94 | 1012.0 |
| 20260509022429 | 10 | 217 | 1.6 | 1.6 | 0.00 | 0.00 | 0.05 | 94 | 1012.0 |
| 20260509021928 | 10 | 193 | 1.6 | 1.6 | 0.00 | 0.00 | 0.05 | 94 | 1011.0 |
| 20260509021428 | 10 | 233 | 0.0 | 1.6 | 0.00 | 0.00 | 0.05 | 93 | 1011.0 |
| 20260509020930 | 10 | 213 | 1.6 | 1.6 | 0.00 | 0.00 | 0.05 | 93 | 1011.0 |
| 20260509020428 | 10 | 203 | 1.6 | 3.2 | 0.00 | 0.00 | 0.05 | 92 | 1011.0 |
| 20260509015928 | 10 | 199 | 0.0 | 1.6 | 0.00 | 0.00 | 0.05 | 92 | 1011.0 |
| 20260509015430 | 10 | 218 | 3.2 | 3.2 | 0.00 | 0.00 | 0.05 | 91 | 1011.0 |
| 20260509014928 | 10 | 211 | 3.2 | 3.2 | 0.00 | 0.00 | 0.05 | 90 | 1011.0 |
| 20260509014428 | 10 | 300 | 1.6 | 3.2 | 0.03 | 0.00 | 0.05 | 89 | 1011.0 |
| 20260509013928 | 11 | 203 | 3.2 | 3.2 | 0.03 | 0.00 | 0.05 | 88 | 1011.0 |
| 20260509013429 | 11 | 205 | 1.6 | 3.2 | 0.05 | 0.00 | 0.05 | 87 | 1011.0 |
| 20260509012931 | 11 | 135 | 1.6 | 1.6 | 0.08 | 0.00 | 0.05 | 86 | 1011.0 |
| 20260509012428 | 11 | 203 | 1.6 | 3.2 | 0.05 | 0.00 | 0.03 | 84 | 1011.0 |
| 20260509011929 | 11 | 218 | 1.6 | 3.2 | 0.00 | 0.00 | 0.03 | 84 | 1011.0 |
| 20260509011429 | 11 | 249 | 1.6 | 1.6 | 0.00 | 0.00 | 0.03 | 84 | 1011.0 |
| 20260509010930 | 11 | 206 | 1.6 | 3.2 | 0.00 | 0.00 | 0.03 | 84 | 1011.0 |
| 20260509010428 | 11 | 211 | 1.6 | 1.6 | 0.00 | 0.00 | 0.03 | 84 | 1011.0 |
| 20260509005929 | 11 | 222 | 1.6 | 3.2 | 0.00 | 0.00 | 0.03 | 84 | 1011.0 |
| 20260509005429 | 11 | 210 | 1.6 | 1.6 | 0.00 | 0.00 | 0.03 | 84 | 1011.0 |
| 20260509004929 | 11 | 186 | 0.0 | 1.6 | 0.00 | 0.00 | 0.03 | 84 | 1011.0 |
| 20260509004430 | 11 | 211 | 1.6 | 3.2 | 0.00 | 0.00 | 0.03 | 83 | 1011.0 |
| 20260509003928 | 11 | 224 | 1.6 | 3.2 | 0.00 | 0.00 | 0.03 | 84 | 1011.0 |
| 20260509003428 | 11 | 226 | 1.6 | 1.6 | 0.00 | 0.00 | 0.03 | 83 | 1011.0 |
| 20260509002928 | 11 | 227 | 1.6 | 1.6 | 0.00 | 0.00 | 0.03 | 83 | 1011.0 |
| 20260509002428 | 11 | 226 | 6.4 | 8.0 | 0.00 | 0.00 | 0.03 | 83 | 1011.0 |
| 20260509001928 | 12 | 226 | 3.2 | 4.8 | 0.00 | 0.00 | 0.03 | 82 | 1011.0 |
| 20260509001429 | 12 | 227 | 3.2 | 4.8 | 0.00 | 0.00 | 0.03 | 80 | 1011.0 |
| 20260509000928 | 12 | 227 | 1.6 | 3.2 | 0.00 | 0.00 | 0.03 | 81 | 1011.0 |
| 20260509000428 | 12 | 227 | 3.2 | 6.4 | 0.00 | 0.00 | 0.03 | 81 | 1011.0 |
| 20260508235930 | 12 | 226 | 4.8 | 9.7 | 0.00 | 0.00 | 0.03 | 79 | 1011.0 |
| 20260508235430 | 12 | 227 | 4.8 | 9.7 | 0.00 | 0.00 | 0.03 | 79 | 1011.0 |
| 20260508234930 | 13 | 227 | 4.8 | 6.4 | 0.00 | 0.00 | 0.03 | 78 | 1011.0 |
| 20260508234429 | 13 | 222 | 3.2 | 4.8 | 0.00 | 0.00 | 0.03 | 75 | 1011.0 |
| 20260508233929 | 13 | 217 | 3.2 | 3.2 | 0.00 | 0.00 | 0.03 | 73 | 1011.0 |
| 20260508233428 | 13 | 220 | 3.2 | 4.8 | 0.00 | 0.00 | 0.03 | 72 | 1011.0 |
| 20260508232928 | 13 | 222 | 3.2 | 3.2 | 0.00 | 0.00 | 0.03 | 70 | 1011.0 |
| 20260508232428 | 14 | 225 | 3.2 | 4.8 | 0.00 | 0.00 | 0.03 | 69 | 1011.0 |
| 20260508231928 | 14 | 222 | 6.4 | 6.4 | 0.00 | 0.00 | 0.03 | 68 | 1011.0 |
| 20260508231430 | 14 | 231 | 3.2 | 8.0 | 0.00 | 0.00 | 0.03 | 62 | 1011.0 |
| 20260508230929 | 14 | 211 | 3.2 | 3.2 | 0.00 | 0.00 | 0.03 | 63 | 1011.0 |
| 20260508230430 | 14 | 215 | 3.2 | 4.8 | 0.00 | 0.00 | 0.03 | 62 | 1011.0 |
| 20260508225928 | 14 | 222 | 3.2 | 4.8 | 0.00 | 0.00 | 0.03 | 62 | 1011.0 |
| 20260508225431 | 14 | 226 | 3.2 | 9.7 | 0.00 | 0.00 | 0.03 | 62 | 1011.0 |
| 20260508224929 | 14 | 223 | 3.2 | 8.0 | 0.00 | 0.00 | 0.03 | 60 | 1011.0 |
| 20260508224428 | 14 | 217 | 3.2 | 3.2 | 0.00 | 0.00 | 0.03 | 60 | 1011.0 |
| 20260508223929 | 14 | 220 | 1.6 | 3.2 | 0.00 | 0.00 | 0.03 | 60 | 1011.0 |
| 20260508223430 | 14 | 98 | 1.6 | 1.6 | 0.00 | 0.00 | 0.03 | 60 | 1011.0 |
| 20260508222930 | 14 | 60 | 1.6 | 3.2 | 0.00 | 0.00 | 0.03 | 61 | 1011.0 |
| 20260508222429 | 15 | 203 | 1.6 | 1.6 | 0.00 | 0.00 | 0.03 | 60 | 1011.0 |
| 20260508221930 | 15 | 209 | 1.6 | 3.2 | 0.00 | 0.00 | 0.03 | 59 | 1011.0 |
| 20260508221429 | 15 | 218 | 3.2 | 4.8 | 0.00 | 0.00 | 0.03 | 62 | 1011.0 |
| 20260508220929 | 15 | 214 | 1.6 | 4.8 | 0.00 | 0.00 | 0.03 | 59 | 1011.0 |
| 20260508220428 | 15 | 222 | 3.2 | 9.7 | 0.00 | 0.00 | 0.03 | 56 | 1011.0 |
| 20260508215929 | 15 | 210 | 3.2 | 3.2 | 0.00 | 0.00 | 0.03 | 57 | 1011.0 |
| 20260508215431 | 15 | 187 | 1.6 | 3.2 | 0.00 | 0.00 | 0.03 | 56 | 1011.0 |
| 20260508214928 | 15 | 208 | 1.6 | 3.2 | 0.00 | 0.00 | 0.03 | 59 | 1011.0 |
| 20260508214428 | 15 | 221 | 4.8 | 9.7 | 0.00 | 0.00 | 0.03 | 58 | 1011.0 |
| 20260508213444 | 15 | 215 | 1.6 | 1.6 | 0.00 | 0.00 | 0.03 | 59 | 1011.0 |